User: anonymous   Login
Location: T�chigga el Be�da
(16.4766°N, 9.3887°W)
Time: 16:40:39
(UTC+00:00)
Language:

Cosmos 1777 Rocket - Orbit

View from above orbital plane
View from above orbital plane
View from above satellite
View from above satellite

Ground track
Ground track

The orbit data is extracted from the following two-line orbital elements,

1 16953U 86070B   20151.12251510 +.00000061 +00000-0 +29195-4 0  9998
2 16953 074.0125 090.0733 0011261 050.5988 309.6160 14.37383868766716
Epoch (UTC): 30 May 2020 02:56:25
Eccentricity: 0.0011261
inclination: 74.0125°
perigee height: 759 km
apogee height: 775 km
right ascension of ascending node: 90.0733°
argument of perigee: 50.5988°
revolutions per day: 14.37383868
mean anomaly at epoch: 309.6160°
orbit number at epoch: 76671

The dashed part of the orbit path shows where the satellite is in the earth's shadow,  

DLR